Regional Weather Roundup
Issued by NWS

Home | Current Version | Previous Version | Graphics & Text | Print | Product List | Glossary On
Versions: 1 2 3 4 5 6 7 8 9 10 11 12 13 14 15 16 17 18 19 20 21 22 23 24 25 26 27 28 29 30 31 32 33 34 35 36 37 38 39 40 41 42 43 44 45 46 47 48 49 50
000
ASUS43 KOAX 202102
RWRNE

WEATHER ROUNDUP FOR NEBRASKA
NATIONAL WEATHER SERVICE OMAHA NE
400 PM CDT MON APR 20 2015

NOTES: SATELLITE DATA IS BEING USED TO AUGMENT CLOUD COVER ABOVE
       12000 FEET.
       "FAIR" INDICATES FEW OR NO CLOUDS BELOW 12,000 FEET WITH NO
       SIGNIFICANT WEATHER AND/OR OBSTRUCTIONS TO VISIBILITY.

  * THESE STATIONS DO NOT REPORT WEATHER SUCH AS RAIN...SNOW OR FOG.

NEZ001>004-019>022-054>056-202200-
NEBRASKA PANHANDLE

CITY           SKY/WX    TMP DP  RH WIND       PRES   REMARKS
SCOTTSBLUFF    CLOUDY    55  24  30 NW18G29   29.89F
ALLIANCE       PTSUNNY   53  22  29 NW21G30   29.86F
CHADRON        MOSUNNY   54  22  28 NW17G25   29.87F
SIDNEY         PTSUNNY   52  26  36 N21G28    29.91F
$$

NEZ057>060-069>072-079>082-202200-
SOUTHWEST NEBRASKA

CITY           SKY/WX    TMP DP  RH WIND       PRES   REMARKS
NORTH PLATTE   MOSUNNY   55  24  30 NW17G32   29.88F
IMPERIAL       PTSUNNY   56  24  29 NW16G28   29.89F
MCCOOK         PTSUNNY   61  23  23 W25       29.88F
$$

NEZ005>010-023>029-035>040-094-202200-
NORTH CENTRAL NEBRASKA

CITY           SKY/WX    TMP DP  RH WIND       PRES   REMARKS
VALENTINE      CLOUDY    52  21  29 NW21G33   29.84S
AINSWORTH      PTSUNNY   52  21  29 NW21G43   29.83S
BROKEN BOW     CLOUDY    54  20  26 NW25G37   29.84F
ORD            PTSUNNY   55  21  26 NW23G38   29.82F
$$

NEZ041-046>049-061>064-073>077-083>087-202200-
SOUTH CENTRAL NEBRASKA

CITY           SKY/WX    TMP DP  RH WIND       PRES   REMARKS
GRAND ISLAND   PTSUNNY   55  20  25 NW26G33   29.84F
HASTINGS       PTSUNNY   56  23  27 NW21G32   29.84F
KEARNEY *      PTSUNNY   57  21  24 NW22G28   29.86F
YORK           MOSUNNY   55  23  28 NW26      29.82S
$$

NEZ011>018-030>034-042>045-202200-
NORTHEAST NEBRASKA

CITY           SKY/WX    TMP DP  RH WIND       PRES   REMARKS
NORFOLK        MOSUNNY   55  15  20 NW30G40   29.75F
COLUMBUS *     MOSUNNY   55  19  24 NW25G38   29.80F
TEKAMAH        MOSUNNY   58  23  26 NW32G41   29.74F
$$

NEZ050>053-065>068-078-088>093-202200-
SOUTHEAST NEBRASKA

CITY           SKY/WX    TMP DP  RH WIND       PRES   REMARKS
LINCOLN        CLOUDY    59  18  20 W22G39    29.81F
OMAHA EPPLEY   MOSUNNY   59  16  18 NW30G46   29.74F
FALLS CITY     PTSUNNY   59  26  28 W24G39    29.81F
PLATTSMOUTH    MOSUNNY   57  12  17 NW25G35   29.77F
$$

NEZ044-045-051>053-067-202200-
OMAHA AREA

CITY           SKY/WX    TMP DP  RH WIND       PRES   REMARKS
OMAHA EPPLEY   MOSUNNY   59  16  18 NW30G46   29.74F
OFFUTT AFB     SUNNY     59  19  20 W26       29.74F
PLATTSMOUTH    MOSUNNY   57  12  17 NW25G35   29.77F
$$



USA.gov is the U.S. government's official web portal to all federal, state and local government web resources and services.